User: anonymous   Login
Location: Rumah Dana
(3.1167°N, 113.0167°E)
Time: 05:34:15
(UTC+00:00)
Language:

Ariane H10 - Orbit

View from above orbital plane
View from above orbital plane
View from above satellite
View from above satellite

Ground track
Ground track

The orbit data is extracted from the following two-line orbital elements,

1 20717U 90063C   24281.46713304  .00002160  00000-0  51801-2 0  9996
2 20717   4.3719  19.9936 7158036 238.6826  32.6311  2.35746550281919
Epoch (UTC): 07 October 2024 11:12:40
Eccentricity: 0.7158036
inclination: 4.3719°
perigee height: 399 km
apogee height: 34539 km
right ascension of ascending node: 19.9936°
argument of perigee: 238.6826°
revolutions per day: 2.35746550
mean anomaly at epoch: 32.6311°
orbit number at epoch: 28191

The dashed part of the orbit path shows where the satellite is in the earth's shadow,  

DLR